Tracking 19146 objects as of 24-Apr-2018
HD Live streaming from Space Station
objects crossing your sky now

FENGYUN 1C DEB

Track FENGYUN 1C DEB now!
10-day predictions


NORAD ID: 37475
Int'l Code: 1999-025EJV
Perigee: 744.4 km
Apogee: 906.9 km
Inclination: 98.9 °
Period: 101.3 minutes
Semi major axis: 7196 km
RCS: 0.0012 m2 (small)
Launch date: May 10, 1999
Source: People's Republic of China (PRC)
Launch site: Taiyaun Space Center, China (TSC)

Note: This is SATELLITE DEBRIS
aabbcc
Your satellite tracking list
Your tracking list is empty




NASA's NSSDC Master Catalog

Two Line Element Set (TLE):
1 37475U 99025EJV 18112.01507760 +.00001076 +00000-0 +47604-3 0  9998
2 37475 098.9110 199.0525 0112880 297.7226 061.2537 14.22034251249140
Source of the keplerian elements: AFSPC